STARLINK-1665, 46356

Orbit data source: Space-Track

STARLINK-1665, 46356 is a payload satellite owned by SpaceX/Seattle (US) in LEO that was launched on Thu, 03 Sep 2020 UTC via an FALCON 9 launch vehicle from the Air Force Eastern Test Range (AFETR). Payload-class satellites include a variety of spacecraft equipped with specific instruments for various scientific and technological missions. These include communications satellites like Starlink; space stations such as the ISS; scientific satellites like the Hubble; Earth observation satellites from companies like Planet Labs, Umbra, and HawkEye 360; GPS; miniature CubeSats for education and research; and military/defense satellites.

Loading next visibility...
Identifier
46356, 2020-062AH
Orbit
LEO
Last TLE update
11 hours ago
Origin
Manufacturer
SpaceX/Seattle
Mission
Operational Commercial Communications
Bus & Motor
STARLINK, Unknown motor
Mass
260 kg wet, ~248 kg dry
Launch date (UTC)
2020-09-03 (5 years ago)
Launch vehicle
FALCON 9
Launch site
Air Force Eastern Test Range (AFETR)
Object type
Payload
Rocket body
Debris
Shape & HBR
Box + 1 Pan, 8.86 m
Radar Cross Section
13.562 m², Large (>1 m²)

Expand to show TLE details & history

TLE from 11 hours ago
0 STARLINK-1665
1 46356U 20062AH  25181.93411183 -.00000242  00000-0  26498-5 0  9994
2 46356  53.0559  66.8302 0001398  97.8370 262.2778 15.06396593266367
Epoch: 2025-06-30T22:25Z
TLE epoch observation values (Epoch: 2025-06-30T22:25:07.262Z)
Latitude
0.00002°
Longitude
171.31316°
Altitude
548.232 km
Speed
7.589 km/s
True Right ascension
04h 27m 19s
True Declination
0° 00' 00"
Sunlit
Object was in daylight at epoch
Visualization orbit readout
Latitude
-42.43717°
Longitude
32.47299°
Altitude
562.112 km
Speed
7.58 km/s
Apparent Right ascension
14h 22m 51s
Apparent Declination
-77° 37' 01"
Sunlit
Object is in full shadow
Visualization observer readout
Local Sidereal Time
20:39:30
Azimuth
196.138° SSW
Elevation
-39.693°
Doppler factor
1
Orbital elements
Apogee altitude
548.461 km
Perigee altitude
546.524 km
Semi-major axis
6,925.629 km
Eccentricity
0.00014
Inclination
53.0559°
RAAN
66.8302°
Arg. of periapsis
97.837°
True anomaly
Unknown
Mean anomaly
262.2778°
Eccentric anomaly
Unknown
Mean motion
3.76577 °/min
Orbital period
95.6 mins
BSTAR
0.0000026498
Loading maneuver chart data...
Loading SW <> Apogee altitude chart data...
Loading historical data...
Loading historical data...
Loading historical data...
Loading historical data...
Loading historical data...
Loading historical data...
Loading historical data...

STARLINK-1665 Visibility forecast

Observer location: undefined°, undefined°

Span
Click to sort rows by Start time (UTC) header in descending order
Start Az.
Max El. time (UTC)
Max El. Az.
Max El.
End time (UTC)
End Az.
4 mins2025-07-01 17:40:17.393Z164.073° S2025-07-01 17:42:17.393Z134.526° SE15.254°2025-07-01 17:44:17.393Z100.579° ESE
6 mins2025-07-01 19:19:17.393Z242.025° WSW2025-07-01 19:22:17.393Z6.047° NNE41.498°2025-07-01 19:25:17.393Z45.073° ENE
4 mins2025-07-01 21:00:17.393Z311.169° NW2025-07-01 21:02:17.393Z347.723° N17.581°2025-07-01 21:04:17.393Z20.369° NNE
5 mins2025-07-02 00:21:17.393Z340.745° N2025-07-02 00:23:17.393Z18.478° NNE22.054°2025-07-02 00:26:17.393Z74.002° E
6 mins2025-07-02 02:01:17.393Z300.218° NW2025-07-02 02:03:17.393Z233.822° WSW43.184°2025-07-02 02:07:17.393Z139.529° SSE
|